[ hide orbit diagram ]
For accurate long-term ephemerides, please instead use our Horizons system.This orbit viewer was implemented using two-body methods, and hence should not be used for determining accurate long-term trajectories (over several years or decades) or planetary encounter circumstances.
Orbital Elements at Epoch 2459200.5 (2020-Dec-17.0) TDB
Reference: JPL 30 (heliocentric ecliptic J2000)
Element | Value | Uncertainty (1-sigma) | Units |
e | .1676314187431794 | 3.7564e-08 | |
a | 2.753468998674003 | 1.1174e-08 | au |
q | 2.291901083960918 | 1.0729e-07 | au |
i | 6.235221802763172 | 3.3913e-06 | deg |
node | 63.13644767345306 | 3.583e-05 | deg |
peri | 319.6401998188123 | 3.7475e-05 | deg |
M | 330.4994413079004 | 1.1624e-05 | deg |
tp | 2459337.256020186908 (2021-May-02.75602019) | 5.4256e-05 | TDB |
period | 1668.855420032147 4.57 | 1.0159e-05 2.781e-08 | d yr |
n | .2157167095955295 | 1.3131e-09 | deg/d |
Q | 3.215036913387088 | 1.3047e-08 | au |
|
| | Orbit Determination Parameters
Additional Information
|
[ show covariance matrix ]
Physical Parameter Table
Parameter |
Symbol |
Value |
Units |
Sigma |
Reference |
Notes |
absolute magnitude |
H |
13.95 |
|
n/a |
E2021B10 |
|
diameter |
diameter |
4.717 |
km |
0.312 |
urn:nasa:pds:neowise_diameters_albedos::2.0[mainbelt] (http://adsabs.harvard.edu/abs/2011ApJ...741...68M) |
|
geometric albedo |
albedo |
0.288 |
|
0.070 |
urn:nasa:pds:neowise_diameters_albedos::2.0[mainbelt] (http://adsabs.harvard.edu/abs/2011ApJ...741...68M) |
|
|
14169 (1998 UZ24) Discovered 1998-Oct-25 by Zoltowski, F. B. at Woomera |
Reference: 20000320/Numbers.arc | Last Updated: 2004-04-19 |
|
Alternate Designations
1998 UZ24 = 1975 VB8 = 1993 SM15 = 1995 BL16 |
|
|